Home   Weather   St. Peter Port   Past weeks

Flag for Guernsey Past Weather in St. Peter Port, Guernsey — Yesterday and Last 2 Weeks

Now
50 °F

Partly sunny.


Feels Like: 43 °F
Forecast: 48 / 49 °F
Wind: 23 mph from Southwest

Location: Guernsey Airport

Current Time: Feb 26, 2017 at 12:38:29 pm

Latest Report: Feb 26, 2017 at 11:50 am


Visibility: N/A

Pressure: 29.89 "Hg

Humidity: 88%

Dew Point: 46 °F

Location of St. Peter PortLocation

Past Weather in St. Peter Port — Graph

°F

St. Peter Port Temperature Yesterday

Maximum temperature yesterday: 50 °F (at 1:20 pm)
Minimum temperature yesterday: 45 °F (at 3:50 am)
Average temperature yesterday: 48 °F

High & Low Weather Summary for the Past Weeks

 TemperatureHumidityPressure
High52 °F (Feb 13, 1:20 pm)100% (Feb 14, 6:20 am)30.48 "Hg (Feb 14, 6:20 am)
Low36 °F (Feb 11, 1:50 pm)58% (Feb 23, 4:50 pm)29.59 "Hg (Feb 23, 7:50 am)
Average47 °F90%30.13 "Hg
* Reported Feb 11 11:20 am — Feb 26 11:20 am, St. Peter Port, Weather by CustomWeather, © 2017

Note: Actual official high and low records may vary slightly from our data, if they occured in-between our weather recording intervals... More about our weather records

Advertising

St. Peter Port Weather History for the Previous 24 Hours

Scroll right to see more
 ConditionsComfort  
Time TempWeatherWind HumidityBarometerVisibility
11:20 am
Sun, Feb 26
50 °FPartly sunny.20 mph82%29.89 "HgN/A
10:50 am50 °FBroken clouds.18 mph88%29.89 "HgN/A
10:20 am50 °FDrizzle. Broken clouds.14 mph94%29.86 "HgN/A
9:50 am50 °FPartly sunny.14 mph94%29.86 "HgN/A
9:20 am50 °FBroken clouds.15 mph94%29.86 "HgN/A
8:50 am50 °FDrizzle. Broken clouds.13 mph94%29.86 "HgN/A
8:20 am48 °FPartly sunny.13 mph100%29.86 "HgN/A
7:50 am50 °FPartly sunny.16 mph94%29.86 "HgN/A
7:20 am50 °FPartly sunny.18 mph94%29.86 "HgN/A
6:50 am48 °FPassing clouds.20 mph100%29.86 "HgN/A
6:20 am50 °FDrizzle. Fog.18 mph100%29.86 "Hg1 mi
5:50 am50 °FDrizzle. Fog.18 mph100%29.86 "Hg1 mi
5:20 am50 °FFog.17 mph100%29.86 "Hg0 mi
4:50 am50 °FFog.17 mph100%29.86 "Hg0 mi
4:20 am50 °FDrizzle. Fog.18 mph100%29.86 "Hg1 mi
3:50 am50 °FPassing clouds.17 mph100%29.86 "Hg4 mi
8:50 pm
Sat, Feb 25
48 °FPassing clouds.17 mph87%29.92 "HgN/A
8:20 pm48 °FPassing clouds.20 mph82%29.92 "HgN/A
7:50 pm48 °FPassing clouds.17 mph87%29.95 "HgN/A
7:20 pm48 °FLight rain. Passing clouds.15 mph82%29.95 "HgN/A
6:50 pm48 °FPassing clouds.15 mph87%29.95 "HgN/A
6:20 pm48 °FPassing clouds.15 mph87%29.95 "HgN/A
5:50 pm50 °FPassing clouds.15 mph82%29.95 "HgN/A
5:20 pm50 °FPartly sunny.16 mph76%29.95 "HgN/A
4:50 pm50 °FPartly sunny.14 mph76%29.95 "HgN/A
4:20 pm50 °FPartly sunny.18 mph76%29.98 "HgN/A
3:50 pm50 °FPartly sunny.15 mph82%29.95 "HgN/A
3:20 pm50 °FPartly sunny.15 mph82%29.98 "HgN/A
2:50 pm50 °FPartly sunny.13 mph82%29.98 "HgN/A
2:20 pm50 °FPartly sunny.13 mph76%29.98 "HgN/A
1:50 pm50 °FPartly sunny.13 mph82%29.98 "HgN/A
1:20 pm50 °FPartly sunny.14 mph82%30.01 "HgN/A
12:50 pm48 °FPartly sunny.14 mph87%30.01 "HgN/A
12:20 pm48 °FPartly sunny.15 mph87%30.01 "HgN/A
Weather by CustomWeather, © 2017

See weather overviewHow to use our weather pages

LIVE ANNULAR SOLAR ECLIPSE – Watch the eclipse as it happens